Theta_e
323 323 324 322 321 320 318 322 323 323 322 322 320 320 321 320 320 317 314 312 312 311
325 323 323 323 322 320 322 321 323 324 323 322 322 321 320 319 319 319 319 317 315 314
325 324 324 324 322 321 321 320 320 322 322 321 321 320 319 319 318 318 318 318 317 317
323 324 324 324 325 323 323 322 321 321 321 321 319 319 316 316 317 316 316 317 316 317
315 322 321 323 323 324 323 323 323 322 320 321 319 319 317 315 316 314 314 315 316 316
302 302 305 306 308 310 313 320 322 322 319 320 321 320 319 318 317 316 316 315 316 316
296 296 298 299 301 303 305 307 308 313 319 320 321 322 321 321 319 318 317 317 317 317
292 294 294 294 295 298 301 302 302 305 307 308 316 314 315 318 318 319 317 317 316 317
288 290 291 291 292 294 295 296 298 300 301 303 306 302 302 303 306 315 317 317 317 316
285 286 286 287 289 290 290 292 293 295 297 299 300 301 301 300 300 302 305 309 313 314
284 284 285 285 286 286 287 288 289 292 294 295 297 299 299 299 299 299 301 303 305 306
282 283 283 284 284 285 286 287 288 290 292 293 294 297 298 297 297 298 299 301 302 303
281 281 281 281 282 283 284 286 287 288 290 292 293 296 295 295 294 294 294 295 296 297
281 280 280 280 281 281 282 283 283 285 288 289 291 291 292 292 291 290 291 292 292 294
Wind_Speed
8 5 6 7 6 7 5 7 10 10 10 10 8 8 8 6 7 7 6 8 6 5
8 8 7 9 10 8 8 6 8 10 10 9 9 9 8 7 8 7 8 9 9 7
10 6 7 6 8 9 9 7 7 8 9 8 9 9 9 8 8 8 8 7 8 9
9 8 6 6 6 8 10 9 8 10 10 10 10 10 9 10 10 10 11 9 10 11
8 2 5 7 6 7 8 10 12 11 10 10 10 10 12 12 12 12 13 14 13 14
6 7 7 7 6 6 7 6 4 2 5 10 11 12 11 13 13 13 14 14 14 15
5 5 5 5 6 6 6 6 6 7 5 6 7 8 9 12 13 13 13 13 13 13
6 6 6 7 7 7 6 6 6 7 6 6 6 5 6 6 6 9 11 12 13 14
6 5 6 6 6 6 6 7 6 6 6 6 4 12 13 10 7 7 9 10 9 7
5 5 5 5 5 5 6 6 6 6 6 6 6 10 10 11 7 7 6 8 7 7
4 4 3 4 4 4 4 5 5 5 6 6 5 9 10 9 5 5 7 6 7 8
4 3 3 3 3 3 3 4 4 4 4 4 5 8 9 9 6 7 7 7 6 5
3 3 4 4 4 4 3 4 4 4 4 5 4 3 6 8 5 6 6 6 7 7
2 2 2 3 3 4 4 4 4 5 5 4 4 4 9 11 6 6 6 6 6 4
Wind_Direction
197 197 191 172 177 199 193 200 195 192 198 200 193 197 193 191 198 195 201 207 208 211
213 203 203 193 190 198 204 195 191 197 200 205 202 197 198 200 207 202 206 212 209 206
221 208 198 181 186 198 209 204 193 204 202 204 198 199 193 210 218 207 216 216 213 214
221 218 208 214 204 203 208 204 207 205 203 206 204 202 193 212 221 215 224 223 216 221
29 280 223 225 234 228 211 221 215 214 214 213 213 209 207 213 214 211 218 222 219 222
36 23 34 18 14 19 12 344 286 260 240 229 226 211 205 214 217 214 223 226 223 230
33 29 13 20 12 14 5 7 359 350 301 249 244 250 239 225 219 220 221 225 228 229
17 17 12 14 8 2 8 8 357 345 345 3 334 3 328 282 265 236 225 223 221 227
33 18 14 8 358 359 359 1 350 352 351 350 355 13 8 359 329 296 257 250 249 237
41 36 21 3 3 5 357 343 350 342 342 341 347 5 357 354 338 322 320 320 292 260
56 44 24 14 13 7 352 339 335 331 333 328 326 348 338 343 325 313 302 301 300 306
38 20 17 19 13 352 336 327 325 320 308 305 314 324 337 342 329 311 308 295 307 302
37 29 7 360 344 332 328 324 320 313 294 319 296 298 344 355 338 331 325 330 322 332
40 20 18 355 332 333 327 329 330 333 343 350 2 3 5 354 344 331 324 322 299 317